Weather History for Meacham, OR

Change the Weather History Date:

Monday, November 19, 2012

  Actual Average Record
Temperature  
Mean Temperature 42 °F -  
Max Temperature 48 °F 40 °F 55 °F (2003)
Min Temperature 36 °F 25 °F 6 °F (2000)
Degree Days  
Heating Degree Days 23    
Moisture  
Dew Point 34 °F    
Average Humidity 70    
Maximum Humidity 89    
Minimum Humidity 61    
Precipitation  
Precipitation 0.01 in - - ()
Sea Level Pressure  
Sea Level Pressure 29.85 in    
Wind  
Wind Speed 3 mph (ESE)    
Max Wind Speed 8 mph    
Max Gust Speed -    
Visibility 10 miles    
Events Rain    
Averages and records for this station are not official NWS values.
T = Trace of Precipitation, MM = Missing Value Source: NWS Daily Summary

Daily Weather History Graph

Daily Weather History Graph

Search for Another Location

Airport:

Trip Planner

Search our weather history database for the weather conditions in past years. The results will help you decide how hot, cold, wet, or windy it might be!

Date:

Astronomy

Nov. 19, 2012 Rise Set
Actual Time 6:59 AM PST 4:19 PM PST
Civil Twilight 6:26 AM PST 4:51 PM PST
Nautical Twilight 5:50 AM PST 5:27 PM PST
Astronomical Twilight 5:15 AM PST 6:02 PM PST
Moon 11:57 AM PST (11/19) 10:59 PM PST (11/19)
Length of Visible Light 10h 25m
Length of Day
9h 20m
Waxing Crescent, 42% of the Moon is Illuminated
Nov 19
Waxing Crescent
Nov 20
First Quarter
Nov 28
Full
Dec 6
Last Quarter
Dec 13
New

Hourly Weather History & Observations

Time (PST) Temp. Windchill Dew Point Humidity Pressure Visibility Wind Dir Wind Speed Gust Speed Precip Events Conditions
12:56 AM 36.0 °F 32.1 °F 33.1 °F 89% 29.89 in 10.0 mi Variable 4.6 mph - 0.00 in Rain Light Rain
1:56 AM 37.0 °F - 33.1 °F 86% 29.93 in 10.0 mi Calm Calm - 0.01 in   Overcast
2:56 AM 37.9 °F - 33.1 °F 83% 29.90 in 10.0 mi Calm Calm - N/A   Overcast
3:56 AM 37.9 °F 34.4 °F 32.0 °F 79% 29.89 in 10.0 mi Variable 4.6 mph - 0.00 in Rain Light Rain
4:56 AM 37.9 °F - 32.0 °F 79% 29.91 in 10.0 mi Calm Calm - 0.00 in   Overcast
5:56 AM 39.0 °F - 30.9 °F 73% 29.90 in 10.0 mi Calm Calm - N/A   Overcast
6:56 AM 39.0 °F 36.8 °F 30.9 °F 73% 29.90 in 10.0 mi Variable 3.5 mph - N/A   Overcast
7:56 AM 39.9 °F 36.7 °F 30.0 °F 68% 29.88 in 10.0 mi Variable 4.6 mph - N/A   Overcast
8:56 AM 39.9 °F 37.8 °F 30.9 °F 70% 29.87 in 10.0 mi Variable 3.5 mph - N/A   Overcast
9:56 AM 42.1 °F 40.2 °F 30.9 °F 65% 29.88 in 10.0 mi Variable 3.5 mph - N/A   Overcast
10:56 AM 42.1 °F 40.2 °F 32.0 °F 67% 29.87 in 10.0 mi Variable 3.5 mph - N/A   Overcast
11:56 AM 44.1 °F 42.5 °F 33.1 °F 65% 29.82 in 10.0 mi Variable 3.5 mph - 0.00 in   Overcast
12:56 PM 44.1 °F 39.5 °F 33.1 °F 65% 29.82 in 10.0 mi ESE 8.1 mph - N/A   Overcast
1:56 PM 44.1 °F 42.5 °F 34.0 °F 68% 29.83 in 10.0 mi Variable 3.5 mph - N/A   Overcast
2:56 PM 45.0 °F 42.6 °F 35.1 °F 68% 29.83 in 10.0 mi Variable 4.6 mph - N/A   Overcast
3:56 PM 44.1 °F 42.5 °F 36.0 °F 73% 29.81 in 10.0 mi Variable 3.5 mph - N/A   Mostly Cloudy
4:56 PM 45.0 °F 42.6 °F 36.0 °F 71% 29.80 in 10.0 mi Variable 4.6 mph - N/A   Scattered Clouds
5:56 PM 46.9 °F - 36.0 °F 66% 29.79 in 10.0 mi Variable 4.6 mph - N/A   Overcast
6:56 PM 46.9 °F - 36.0 °F 66% 29.80 in 10.0 mi Variable 3.5 mph - N/A   Overcast
7:56 PM 48.0 °F - 36.0 °F 63% 29.78 in 10.0 mi Variable 3.5 mph - N/A   Overcast
8:56 PM 48.0 °F - 36.0 °F 63% 29.78 in 10.0 mi Variable 3.5 mph - N/A   Overcast
9:56 PM 48.0 °F - 36.0 °F 63% 29.79 in 10.0 mi Calm Calm - N/A   Overcast
10:56 PM 48.9 °F - 36.0 °F 61% 29.81 in 10.0 mi Calm Calm - N/A   Overcast
11:56 PM 48.0 °F - 37.0 °F 66% 29.82 in 10.0 mi Calm Calm - 0.00 in Rain Light Rain